Terminal Aerodrome Forecast
Issued by NWS Wakefield, VA

Home | Current Version | Previous Version | Text Only | Print | Product List | Glossary On
Versions: 1 2 3 4 5 6 7 8 9 10 11 12 13 14 15
000
FTUS41 KAKQ 242320
TAFRIC
TAF
KRIC 242320Z 2500/2524 20007KT P6SM FEW070
     FM251300 21010KT P6SM FEW250
     FM251800 20010G15KT P6SM FEW050 SCT250=

USA.gov is the U.S. government's official web portal to all federal, state and local government web resources and services.